Miscellaneous Local Product
Issued by NWS North Platte, NE

Home | Current Version | Previous Version | Graphics & Text | Print | Product List | Glossary On
Versions: 1 2 3 4 5 6 7 8 9 10 11 12 13 14 15 16 17 18 19 20 21 22 23 24 25 26 27 28 29 30 31 32 33 34 35 36 37 38 39 40 41 42 43 44 45 46 47 48 49 50
873
AXUS43 KLBF 240810
MISLBF


WESTERN AND NORTH CENTRAL NEBRASKA HOURLY WEATHER ROUNDUP
NATIONAL WEATHER SERVICE NORTH PLATTE NE
300 AM CDT MON APR 24 2017

NOTE: "FAIR" INDICATES FEW OR NO CLOUDS BELOW 12,000 FEET WITH NO
SIGNIFICANT WEATHER AND/OR OBSTRUCTIONS TO VISIBILITY.

NOTE: STATIONS NOT REPORTING VARIABLES SUCH AS SKY/WEATHER OR
PRESSURE ARE PROVIDED BY RAWS AND APRS NETWORKS AND ARE NOT UNDER
NATIONAL WEATHER SERVICE QUALITY CONTROL.

...OBSERVATIONS IN AND NEAR THE EASTERN PANHANDLE OF NEBRASKA...

CITY           SKY/WX    TMP DP  RH WIND       PRES   REMARKS
PINE RIDGE     PTCLDY    48  43  82 NW3       29.58S
CHADRON        PTCLDY    48  42  80 N7        29.60S
ALLIANCE       PTCLDY    48  39  71 S8        29.57R
SIDNEY         PTCLDY    44  40  85 CALM      29.55F
CRESCENT LAKE    N/A     52  40  64 S9G16       N/A
$$

...OBSERVATIONS IN NORTHERN NEBRASKA AND FAR SOUTHERN SOUTH DAKOTA...

CITY           SKY/WX    TMP DP  RH WIND       PRES   REMARKS
WINNER         FAIR      59  33  37 S21       29.56F
VALENTINE      CLOUDY    58  30  34 S22       29.54F
THEDFORD       CLOUDY    54  33  45 S15G23    29.60F
AINSWORTH      CLOUDY    53  37  53 S15       29.61F
O`NEILL        CLOUDY    55  32  41 S15G24    29.66F
ORD            CLOUDY    53  33  46 SE13G21   29.67F
BROKEN BOW     CLOUDY    53  34  48 S17G25    29.65F
VALENTINE NWR    N/A     54  31  42 S13G20      N/A
HALSEY           N/A     53  31  42 S12G20      N/A
BUTTE            N/A     56  37  48 N15G28      N/A
CHAMBERS         N/A     53  33  47 S6          N/A
EWING            N/A     53  37  55 S7G18       N/A
$$

...OBSERVATIONS IN SOUTHWEST NEBRASKA AND FAR NORTHEAST COLORADO...

CITY           SKY/WX    TMP DP  RH WIND       PRES   REMARKS
HOLYOKE        FAIR      46  39  76 SE7       29.56F
IMPERIAL       CLOUDY    52  35  52 SE6       29.58F
OGALLALA       CLOUDY    51  37  58 E7        29.58F
NORTH PLATTE   CLOUDY    53  35  50 SE12      29.60F
MCCOOK         CLOUDY    53  35  50 S10       29.62F
LEXINGTON      CLOUDY    53  34  48 S23       29.65F
STAPLETON        N/A     50  36  58 CALM        N/A
GOTHENBURG       N/A     53  33  47 S14         N/A
CALLAWAY         N/A     51  37  59 S26         N/A
$$

...OBSERVATIONS IN CENTRAL LINCOLN COUNTY AREA...

CITY           SKY/WX    TMP DP  RH WIND       PRES   REMARKS
N.P. AIRPORT   CLOUDY    53  35  50 SE12      29.60F
N.P. DOWNTOWN    N/A     52  35  52 SE7G15      N/A
N.P. HILLCREST   N/A     52  35  52 S12         N/A
$$

...SOME OBSERVATIONS FROM AROUND THE REGION...

CITY           SKY/WX    TMP DP  RH WIND       PRES   REMARKS
DENVER         CLOUDY    52  36  54 SW12      29.63F
LIMON          CLOUDY    37  36  96 N7        29.65F WCI  32
ASPEN          LGT RAIN  45  36  70 S13G23    29.90S
LARAMIE        CLOUDY    41  34  76 NW15      29.78S
CASPER         CLOUDY    49  37  63 W13G22    29.71S
CHEYENNE       CLOUDY    50  32  50 NW15G25   29.72S
SCOTTSBLUFF    CLOUDY    46  37  71 NW5       29.60R
GRAND ISLAND   CLOUDY    53  35  50 S21       29.73F
OMAHA          CLOUDY    54  36  50 S15       29.84F
SIOUX FALLS    MOCLDY    55  35  47 S17       29.73F
PIERRE         LGT RAIN  42  37  82 NW22G30   29.57R
RAPID CITY     CLOUDY    39  37  92 N3        29.58F
BISMARCK       CLOUDY    34  31  88 E12       29.77R WCI  25
KANSAS CITY    PTCLDY    45  36  70 S8        29.92F
HILL CITY      CLOUDY    54  37  52 S17G28    29.70F
WICHITA        CLEAR     48  41  76 S13       29.89F
DODGE CITY     CLOUDY    50  36  58 S22G31    29.79F
OKLAHOMA CITY  PTCLDY    45  39  79 S7        29.92F
DALLAS         CLEAR     52  44  74 SE3       29.94F
AMARILLO       CLEAR     52  32  46 S21       29.87F
$$




USA.gov is the U.S. government's official web portal to all federal, state and local government web resources and services.